Simultaneous Nadir Overpasses (SNOs) Predictions

Prediction of SNOs between GOES-16 and LANDSAT-8 Satellite Orbit:

Table of predicted SNOs for the next 14.0 days since TLE Epoch: 12/10/2022
Index Date Time (GOES-16) GOES-16 Lat,Lon LANDSAT-8 Lat,Lon Distance(km) Time Diff (sec)
1 12/11/2022 15:00:56 -0.04, -75.21 -0.60, -72.45 313.01 80
2 12/12/2022 03:24:59 0.04, -75.19 -0.50, -77.64 279.18 80
3 12/14/2022 03:10:08 0.03, -75.20 0.15, -74.69 58.85 80
4 12/16/2022 02:57:55 0.03, -75.22 0.76, -71.72 397.64 80
5 12/16/2022 15:21:49 -0.03, -75.25 0.35, -76.87 185.69 80
6 12/18/2022 15:06:57 -0.03, -75.27 -0.33, -73.92 153.85 80
7 12/19/2022 03:31:00 0.02, -75.26 -0.82, -79.10 437.57 80
8 12/20/2022 14:57:24 -0.03, -75.30 -0.96, -70.96 493.54 80
9 12/21/2022 03:18:47 0.02, -75.29 -0.19, -76.14 97.93 80
10 12/23/2022 03:03:54 0.02, -75.31 0.46, -73.18 241.93 80
11 12/23/2022 15:25:09 -0.02, -75.34 0.64, -78.34 341.53 80
